EW6230 Weather Reports


time (UTC)temp
F
wind
direction
speed
knots
gust
knots
rain 1hr
in
rain 24hr
in
rain mn
in
humidity
%
barometer
mb
20260906133028 0 0.0 0.0 0.00 0.00 0.00 1013.2
20260906131524 0 0.0 0.0 0.00 0.00 0.00 1013.1
20260906130025 0 0.0 0.0 0.00 0.00 0.00 1013.2
20260906124514 0 0.0 0.0 0.00 0.00 0.00 1013.1
20260906123017 0 0.0 0.0 0.00 0.00 0.00 1013.3
20260906121518 0 0.0 0.0 0.00 0.00 0.00 1013.4
20260906120001 50 218 0.0 0.0 0.00 0.00 0.00 1 1013.4
20260906114611 51 208 0.0 0.0 0.00 0.00 0.00 1 1013.4
20260906113057 51 208 0.0 0.0 0.00 0.00 0.00 2 1013.4
20260906111547 51 208 0.0 0.0 0.00 0.00 0.00 2 1013.3
20260906110045 51 208 0.0 0.0 0.00 0.00 0.00 1 1013.3
20260906104538 51 223 0.0 0.0 0.00 0.00 0.00 1 1013.4
20260906103034 51 223 0.0 0.0 0.00 0.00 0.00 1 1013.3
20260906101530 51 223 0.0 0.0 0.00 0.00 0.00 1 1013.3
20260906100026 51 223 0.0 0.0 0.00 0.00 0.00 1 1013.4
20260906094520 51 223 0.0 0.0 0.00 0.00 0.00 1 1013.4
20260906093017 51 223 0.0 0.0 0.00 0.00 0.00 1 1013.3
20260906091524 51 223 0.0 0.0 0.00 0.00 0.00 1 1013.4
20260906090008 51 223 0.0 0.0 0.00 0.00 0.00 1 1013.5
20260906084504 51 223 0.0 0.0 0.00 0.00 0.00 1 1013.6
20260906083100 51 223 0.0 0.0 0.00 0.00 0.00 1 1013.7
20260906081602 52 223 0.0 0.0 0.00 0.00 0.00 1 1013.8
20260906080052 52 223 0.0 0.0 0.00 0.00 0.00 1 1013.9
20260906074604 52 223 0.0 0.9 0.00 0.00 0.00 1 1013.7
20260906073042 52 221 0.0 0.9 0.00 0.00 0.00 1 1013.6
20260906071539 52 219 0.0 0.0 0.00 0.00 0.00 1 1013.7
20260906070033 52 219 0.0 0.0 0.00 0.00 0.00 1 1013.7
20260906064528 52 219 0.0 0.0 0.00 0.00 0.00 1 1013.7
20260906063025 53 219 0.0 0.0 0.00 0.00 0.00 1 1013.7
20260906061521 53 219 0.0 0.0 0.00 0.00 0.00 1 1013.7
20260906060024 53 219 0.0 0.0 0.00 0.00 0.00 1 1013.8
20260906054502 53 219 0.0 0.0 0.00 0.00 0.00 1 1013.8
20260906053100 54 219 0.0 0.0 0.00 0.00 0.00 1 1013.8
20260906051602 54 219 0.0 0.0 0.00 0.00 0.00 6 1014.0
20260906050054 55 219 0.0 0.0 0.00 0.00 0.00 12 1013.7
20260906044546 55 219 0.0 0.0 0.00 0.00 0.00 8 1013.8
20260906043043 55 219 0.0 0.0 0.00 0.00 0.00 9 1013.7
20260906041543 56 84 0.0 0.0 0.00 0.00 0.00 12 1013.9
20260906040034 56 84 0.0 0.0 0.00 0.00 0.00 11 1014.1
20260906034530 57 84 0.0 0.0 0.00 0.00 0.00 8 1014.3
20260906033037 57 84 0.0 0.0 0.00 0.00 0.00 15 1014.2
20260906031523 58 84 0.0 0.0 0.00 0.00 0.00 19 1014.1
20260906030016 58 84 0.0 0.0 0.00 0.00 0.00 20 1014.2
20260906024511 58 84 0.0 0.0 0.00 0.00 0.00 23 1014.1
20260906023007 58 84 0.0 0.0 0.00 0.00 0.00 26 1013.9
20260906021503 59 85 0.0 0.0 0.00 0.00 0.00 26 1013.9
20260906020104 59 84 0.0 0.0 0.00 0.00 0.00 30 1014.0
20260906014554 59 84 0.0 0.0 0.00 0.00 0.00 33 1013.9
20260906013050 60 85 0.0 0.0 0.00 0.00 0.00 39 1013.8
20260906011547 61 85 0.0 0.0 0.00 0.00 0.00 50 1013.7
20260906010042 63 84 0.0 0.0 0.00 0.00 0.00 60 1013.6
20260906004537 64 84 0.0 0.0 0.00 0.00 0.00 63 1013.5
20260906003032 64 84 0.0 0.0 0.00 0.00 0.00 63 1013.3
20260906001529 65 84 0.0 0.0 0.00 0.00 0.00 63 1013.2
20260906000024 67 85 0.0 0.9 0.00 0.00 0.00 62 1013.1
20260905234519 69 100 0.0 1.7 0.00 0.00 0.00 59 1013.0
20260905233015 69 350 0.0 0.9 0.00 0.00 0.00 60 1013.1
20260905231511 69 352 0.0 0.9 0.00 0.00 0.00 61 1013.1
20260905230006 70 352 0.0 0.9 0.00 0.00 0.00 60 1013.1
20260905224504 71 224 0.0 0.9 0.00 0.00 0.00 58 1013.1
20260905223059 69 122 0.0 1.7 0.00 0.00 0.00 60 1013.2
20260905221601 68 304 0.0 2.6 0.00 0.00 0.00 62 1013.3
20260905214545 67 77 0.0 0.9 0.00 0.00 0.00 62 1013.6
20260905213040 66 77 0.0 0.0 0.00 0.00 0.00 63 1013.7
20260905211534 65 77 0.0 0.0 0.00 0.00 0.00 63 1014.0
20260905210031 67 78 0.0 0.9 0.00 0.00 0.00 62 1014.0
20260905204527 69 13 0.0 0.9 0.00 0.00 0.00 62 1014.0
20260905203023 67 345 0.0 0.9 0.00 0.00 0.00 62 1014.1
20260905201518 69 357 0.0 0.9 0.00 0.00 0.00 61 1014.0
20260905200013 68 338 0.0 0.9 0.00 0.00 0.00 62 1013.9
20260905194509 68 340 0.0 0.9 0.00 0.00 0.00 62 1014.0
20260905193007 67 77 0.0 0.9 0.00 0.00 0.00 62 1014.0
20260905191600 65 82 0.0 0.9 0.00 0.00 0.00 61 1014.1
20260905190056 67 188 0.0 0.0 0.00 0.00 0.00 62 1014.3
20260905184555 66 150 0.0 0.0 0.00 0.00 0.00 61 1014.4
20260905183050 65 151 0.0 0.0 0.00 0.00 0.00 56 1014.5
20260905181601 63 149 0.0 0.0 0.00 0.00 0.00 43 1014.5
20260905180037 62 150 0.0 0.0 0.00 0.00 0.00 29 1014.6
20260905174541 61 150 0.0 0.0 0.00 0.00 0.00 22 1014.6
20260905173032 60 89 0.0 0.0 0.00 0.00 0.00 11 1014.6
20260905171535 59 89 0.0 0.0 0.00 0.00 0.00 6 1014.6
20260905170019 59 89 0.0 0.0 0.00 0.00 0.00 11 1014.6
20260905164510 60 88 0.0 0.0 0.00 0.00 0.00 19 1014.5
20260905163006 59 88 0.0 0.0 0.00 0.00 0.00 14 1014.3
20260905161501 59 88 0.0 0.0 0.00 0.00 0.00 14 1014.3
20260905160132 59 89 0.0 0.0 0.00 0.00 0.00 17 1014.5
20260905154552 58 89 0.0 0.0 0.00 0.00 0.00 15 1014.5
20260905153048 58 89 0.0 0.0 0.00 0.00 0.00 1 1014.5
20260905151545 56 88 0.0 0.0 0.00 0.00 0.00 1 1014.4
20260905150038 54 87 0.0 0.0 0.00 0.00 0.00 1 1014.3
20260905144535 54 87 0.0 0.0 0.00 0.00 0.00 1 1014.2
20260905143030 53 87 0.0 0.0 0.00 0.00 0.00 1 1014.2
20260905141526 0 0.0 0.0 0.00 0.00 0.00 1014.0
20260905140021 0 0.0 0.0 0.00 0.00 0.00 1014.0
20260905134516 0 0.0 0.0 0.00 0.00 0.00 1014.0